Hourly Data Report for February 14, 2017

All times are specified in Local Standard Time (LST). Add 1 hour to adjust for Daylight Saving Time where and when it is observed.

TORONTO CITY
ONTARIO

43°40'00.000" N
79°24'00.000" W
112.50 m
6158355
71508
XTO

Download Data

Hourly Data (February 2017)
Hourly Data Report for February 14, 2017
TIME Temp Definition
°C
Dew Point Definition
°C
Rel Hum Definition
%
Wind Dir Definition
10's deg

Wind Spd Definition
km/h
Visibility Definition
km
Stn Press Definition
kPa
Hmdx Definition


Wind Chill Definition


Weather Definition


00:00 -2.7 -6.7 74 LegendMM LegendMM   100.17     LegendNANA
01:00 -3.6 -6.5 80 LegendMM LegendMM   100.02     LegendNANA
02:00 -2.2 -4.4 84 LegendMM LegendMM   99.96     LegendNANA
03:00 -2.2 -4.9 82 LegendMM LegendMM   99.89     LegendNANA
04:00 -2.9 -5.4 83 LegendMM LegendMM   99.73     LegendNANA
05:00 -1.2 -3.2 86 LegendMM LegendMM   99.60     LegendNANA
06:00 0.1 -2.5 82 LegendMM LegendMM   99.50     LegendNANA
07:00 0.9 -2.0 81 LegendMM LegendMM   99.40     LegendNANA
08:00 1.2 -1.8 81 LegendMM LegendMM   99.39     LegendNANA
09:00 1.4 -1.8 79 LegendMM LegendMM   99.29     LegendNANA
10:00 1.5 -2.3 76 LegendMM LegendMM   99.19     LegendNANA
11:00 3.1 -2.2 68 LegendMM LegendMM   99.09     LegendNANA
12:00 3.9 -1.9 66 LegendMM LegendMM   98.99     LegendNANA
13:00 5.0 -2.3 59 LegendMM LegendMM   98.88     LegendNANA
14:00 5.1 -1.8 61 LegendMM LegendMM   98.78     LegendNANA
15:00 5.2 -2.0 59 LegendMM LegendMM   98.78     LegendNANA
16:00 4.7 -1.6 64 LegendMM LegendMM   98.74     LegendNANA
17:00 4.6 -1.5 65 LegendMM LegendMM   98.72     LegendNANA
18:00 4.6 -1.1 66 LegendMM LegendMM   98.74     LegendNANA
19:00 3.8 0.1 77 LegendMM LegendMM   98.75     LegendNANA
20:00 3.6 0.0 77 LegendMM LegendMM   98.73     LegendNANA
21:00 3.2 -0.1 79 LegendMM LegendMM   98.65     LegendNANA
22:00 3.0 -0.1 80 LegendMM LegendMM   98.60     LegendNANA
23:00 3.0 0.5 83 LegendMM LegendMM   98.52     LegendNANA

Notes on Data Quality.

Legend

  • E = Estimated
  • M = Missing
  • NA = Not Available
Date modified: